Погода в Васильевке

Россия / Оренбургская область     52°10′45″N   52°08′41″E
темп.,
°C
ветер,
м/с
пор.,
м/с
влажн.,
%
обл.,
%
осадки,
мм/ч
давл.,
гПа
погр.,
м
14 мая, пт
пт1423:00+19юв4114911 0.0 1024160
02:00+17юв4104915 0.0 1023154
05:00+16юв4104978 0.0 1024148
08:00+18ююв412510 0.0 1025302
11:00+24ююв67350 0.0 1025581
14:00+28ю672626 0.0 10241393
17:00+28ю67245 0.0 10241742
20:00+24ююв36425 0.0 102398
15 мая, сб
сб1523:00+20ююв33455 0.0 102325
02:00+18ююв334413 0.0 102325
05:00+17ююв33444 0.0 102322
08:00+20ююв38470 0.0 1024179
11:00+26ююв57311 0.0 1023556
14:00+29ю552321 0.0 10231709
17:00+30ю44225 0.0 10222387
20:00+26ююв22363 0.0 102115
16 мая, вс
вс1623:00+21ююв22411 0.0 102111
02:00+20юв22400 0.0 102113
05:00+19юв33394 0.0 102119
08:00+22ююв37472 0.0 1021154
11:00+28ю57335 0.0 1021601
14:00+31ю56235 0.0 10203613
17:00+31юз562335 0.0 10193366
20:00+27ююв223865 0.0 101929
17 мая, пн
пн1723:00+21ю354718 0.0 102068
02:00+19юв345119 0.0 102058
05:00+18ююв225362 0.0 102013
08:00+21ююв36537 0.0 1020196
11:00+27ююв33385 0.0 1020540
14:00+30ююв33286 0.0 10192223
17:00+30ююв2324100 0.0 10183108
20:00+25юз584138 0.0 1018191
18 мая, вт
вт1823:00+22ююв234345 0.0 101824
02:00+21в12489 0.0 101811
05:00+19вюв0151100 0.0 101811
08:00+22ююв124897 0.0 101881
11:00+27ююв2235100 0.0 1018536
14:00+30ю2224100 0.0 10172776
17:00+31ссв121967 0.0 10163415
20:00+27в3332100 0.0 101624